FO-29
1 24278U 96046B 13282.69696498 -.00000016 00000-0 21193-4 0 2172
2 24278 098.5412 325.8740 0349985 227.2348 249.3443 13.53007129846793
SO-33
1 25509U 98061B 13282.82218635 .00000698 00000-0 12800-3 0 6002
2 25509 031.4301 138.5354 0350736 081.6086 021.5836 14.29148314781308
RS-22
1 27939U 03042A 13283.85155520 .00000798 00000-0 15856-3 0 8426
2 27939 097.7978 105.6841 0012981 176.0159 184.1170 14.64595558536226
VO-52
1 28650U 05017B 13283.70168251 .00001254 00000-0 15532-3 0 5482
2 28650 097.5655 296.3789 0024260 258.7809 231.2297 14.84183098456217
HO-68
1 36122U 09072B 13283.80843615 -.00000044 00000-0 00000 0 0 9655
2 36122 100.2911 337.8659 0007687 089.4198 270.7793 13.16307320183629
UO-11
1 14781U 84021B 13283.77778161 .00000505 00000-0 71918-4 0 3070
2 14781 097.8898 343.3588 0007472 270.4554 089.5802 14.81034594591043
AO-16
1 20439U 90005D 13283.07820957 .00000110 00000-0 56801-4 0 8598
2 20439 098.4806 220.4828 0011209 173.1163 251.0252 14.32211917238681
LO-19
1 20442U 90005G 13283.46330067 .00000105 00000-0 54629-4 0 7963
2 20442 098.4505 222.2807 0012398 162.7917 334.4897 14.32420771238938
AO-27
1 22825U 93061C 13282.91621873 .00000087 00000-0 51085-4 0 4983
2 22825 098.6299 225.7836 0007462 316.8489 089.0339 14.29595472 45026
IO-26
1 22826U 93061D 13283.45925995 .00000110 00000-0 59868-4 0 2539
2 22826 098.6242 226.5853 0007882 307.1568 132.0098 14.29883585 45239
GO-32
1 25397U 98043D 13282.84277527 .00000043 00000-0 37307-4 0 1788
2 25397 098.4314 245.6989 0000880 028.9569 026.1772 14.23362667792255
NO-44
1 26931U 01043C 13283.31817134 .00000095 00000-0 68986-4 0 4387
2 26931 067.0521 322.7087 0007496 265.4000 220.7662 14.29965274627881
SO-50
1 27607U 02058C 13283.41306549 .00000632 00000-0 11815-3 0 1932
2 27607 064.5564 273.3137 0033717 118.9076 039.1167 14.73100495580681
CO-55
1 27844U 03031E 13283.46870425 .00000237 00000-0 12875-3 0 7609
2 27844 098.7024 290.8731 0008589 275.8328 254.4767 14.21279924533100
CO-57
1 27848U 03031J 13283.83453824 .00000191 00000-0 10841-3 0 7031
2 27848 098.7110 290.8080 0008511 281.4405 201.8065 14.20998249533082
AO-51
1 28375U 04025K 13283.77695381 .00000252 00000-0 87881-4 0 6755
2 28375 098.2163 234.6781 0083786 027.3501 012.5848 14.41170361487989
CP3
1 31129U 07012N 13283.55815262 .00001014 00000-0 23565-3 0 5713
2 31129 097.9086 269.7527 0101133 068.7753 068.7436 14.53835089343752
CO-65
1 32785U 08021C 13283.40352148 .00001213 00000-0 15126-3 0 7588
2 32785 097.7379 337.5846 0012744 290.0302 133.0428 14.84153855294964
PRISM
1 33493U 09002B 13283.80598588 .00002682 00000-0 30836-3 0 2557
2 33493 098.2307 084.6974 0018011 173.3910 186.7575 14.86588791255093
SOHLA-1
1 33496U 09002E 13283.56107179 .00000383 00000-0 71676-4 0 1682
2 33496 098.1468 039.3599 0005440 322.4633 166.5014 14.70387968252822
SO-67
1 35870U 09049F 13283.84324358 .00004939 00000-0 18230-3 0 5010
2 35870 097.1838 308.4914 0000419 019.4332 067.0153 15.28206173225912
TISAT-1
1 36799U 10035E 13283.79040808 .00001722 00000-0 21447-3 0 5221
2 36799 098.0303 009.1680 0015507 056.0034 304.2633 14.83726686175712
STUDSAT
1 36801U 10035G 13283.54951772 .00016637 00000-0 17381-2 0 6941
2 36801 098.0427 013.2220 0011525 037.1626 323.0890 14.89686681175880
ALMASAT-1
1 38078U 12006B 13283.81719709 .00036803 00000-0 88202-3 0 6893
2 38078 069.4767 291.6125 0675288 358.0887 001.7971 14.29920637 85740
XATCOBEO
1 38082U 12006F 13283.70643779 .00145100 65821-5 24059-2 0 5705
2 38082 069.4716 251.9774 0514315 336.3618 021.4576 14.71533071 86821
SOMP
1 39135U 13015F 13283.77147648 .00010241 00000-0 79730-3 0 3465
2 39135 064.8778 205.4101 0002906 301.9272 058.2076 15.01021095 26175
CUBEBUG-1
1 39153U 13018D 13283.81313626 .00000919 00000-0 13854-3 0 4720
2 39153 098.0663 359.5223 0019611 074.1391 286.1980 14.76649086 24749
ESTCUBE-1
1 39161U 13021C 13283.68136778 .00000828 00000-0 14918-3 0 4438
2 39161 098.1209 001.2938 0011287 102.7635 257.4855 14.69143631 22959
NOAA-10
1 16969U 86073A 13283.49244131 .00000074 00000-0 47340-4 0 5269
2 16969 098.5377 308.7746 0011145 265.6895 231.3626 14.27668883408390
NOAA-11
1 19531U 88089A 13283.34282334 .00000056 00000-0 50928-4 0 5443
2 19531 098.7044 003.6230 0010119 293.2373 066.7735 14.15030819292401
NOAA-12
1 21263U 91032A 13283.44292515 .00000059 00000-0 43507-4 0 31
2 21263 098.6898 307.8739 0013026 241.5047 256.0463 14.25589068164977
MET-3/5
1 21655U 91056A 13283.79638204 .00000425 00000-0 10723-2 0 8047
2 21655 082.5581 172.6230 0012997 196.3278 163.7427 13.17045781 65159
MET-2/21
1 22782U 93055A 13283.76559623 .00000037 00000-0 20564-4 0 8656
2 22782 082.5530 011.2104 0021423 242.5787 276.3811 13.83715505 15622
OKEAN-4
1 23317U 94066A 13283.83920139 .00000795 00000-0 90790-4 0 3469
2 23317 082.5366 301.5357 0020921 199.5884 140.4511 14.84665461 26098
NOAA-14
1 23455U 94089A 13283.49155579 .00000013 00000-0 29877-4 0 4818
2 23455 098.7975 006.1521 0009810 036.6087 032.3295 14.13923227968662
NOAA-15
1 25338U 98030A 13283.43886054 .00000134 00000-0 75907-4 0 9053
2 25338 098.7352 273.0777 0011403 148.8449 005.3109 14.25272928801264
RESURS
1 25394U 98043A 13283.84729023 .00000031 00000-0 31132-4 0 4891
2 25394 098.3776 254.2246 0000204 235.4484 180.4334 14.24337889792826
FENGYUN1
1 25730U 99025A 13283.15849779 .00001601 00000-0 91725-3 0 9837
2 25730 098.8900 241.3264 0027538 085.1764 342.7848 14.10709525742251
OKEAN-0
1 25860U 99039A 13282.78410644 .00000445 00000-0 74079-4 0 671
2 25860 098.0063 243.7948 0002034 115.7008 304.2900 14.74717937765249
NOAA-16
1 26536U 00055A 13283.42475376 .00000199 00000-0 13105-3 0 3948
2 26536 099.0289 337.2536 0011090 166.4429 314.9450 14.12924769672841
NOAA-17
1 27453U 02032A 13283.48384167 .00000126 00000-0 71641-4 0 3015
2 27453 098.3126 291.4507 0011932 181.8436 340.8633 14.24624976587133
NOAA-18
1 28654U 05018A 13283.46816272 .00000117 00000-0 89502-4 0 7919
2 28654 099.1157 253.4275 0013448 243.1368 269.6158 14.11873009432329
NOAA-19
1 33591U 09005A 13283.50325009 .00000047 00000-0 50308-4 0 9650
2 33591 098.9142 224.7091 0015165 103.5780 358.5540 14.11561162240760
HUBBLE
1 20580U 90037B 13283.00674197 .00001654 00000-0 10473-3 0 3498
2 20580 028.4700 239.9203 0003209 130.9162 297.9742 15.03994410 86990
ISS
1 25544U 98067A 13284.02693293 .00011202 00000-0 20722-3 0 7824
2 25544 051.6510 254.3210 0002730 017.6093 062.7705 15.49547543852677
CO-58
1 28895U 05043F 13283.53605537 .00000608 00000-0 13196-3 0 5932
2 28895 097.8550 133.1544 0018898 079.9335 280.3998 14.61257377423785
FALCON
1 30776U 07006E 13282.77509714 .00006517 00000-0 37791-3 0 7113
2 30776 035.4301 218.4178 0002750 244.5975 202.5538 15.11595798362762
MAST
1 31126U 07012K 13283.44950483 .00000676 00000-0 15892-3 0 8735
2 31126 097.8910 272.8545 0094049 054.0094 098.2954 14.54694930344070
CAPE1
1 31130U 07012P 13283.76094792 .00000909 00000-0 21300-3 0 8737
2 31130 097.9094 269.5589 0101643 069.1921 292.0128 14.53647733343563
